Volver al catálogo

TITAN 3C TRANSTAGE DEB

LostHEO
NORAD 28553·DEBRIS·🇺🇸 United States

Lanzado Dec 21, 1965 desde Cape Canaveral Space Force Station

Loading…

Próximos Pases (próximas 24 horas)

TLE

ObsoletoSource: Space-Track

Época: Nov 7, 2025, 10:19 UTC

1 28553U 65108BU  25311.42991332  .00000046  00000-0  81786-3 0  9991
2 28553  26.6303 277.8000 6780846 250.8644 336.3340  2.72816909215045

Sigue TITAN 3C TRANSTAGE DEB en tiempo real con AllMySat

Download on the App Store